Flag for Denmark Weather past 2 weeks in Esbjerg, Denmark

Now
73 °F

Mild.


Feels Like: 77 °F
Forecast: 60 / 76 °F
Wind: 9 mph from Southeast

Location: Esbjerg Airport

Current Time: Jul 1, 2015 at 3:09:58 PM

Latest Report: Jul 1, 2015 at 2:20 PM


Visibility: N/A

Pressure: 30.24 "Hg

Humidity: 47%

Dew point: 52 °F

Location of EsbjergLocation

Historic Weather in Esbjerg — Graph

°F

Esbjerg temperature yesterday

Maximum temperature yesterday: 66 °F (at 2:20 PM)
Minimum temperature yesterday: 52 °F (at 2:20 AM)
Average temperature yesterday: 59 °F

Past Weeks' High & Low Weather Summary

 TemperatureHumidityPressure
High73 °F (Jul 1, 12:50 PM)100% (Jun 20, 6:20 AM)30.24 "Hg (Jun 20, 6:20 AM)
Low41 °F (Jun 17, 12:20 AM)50% (Jul 1, 12:50 PM)29.62 "Hg (Jun 23, 4:50 AM)
Average56 °F81%29.98 "Hg
* Reported Jun 16 1:20 PM — Jul 1 1:50 PM, Esbjerg, Weather by CustomWeather, © 2015

Note: Actual official high and low records may vary slightly from our data, if they occured in-between our weather recording intervals... More about our weather records

Advertising

Esbjerg weather history for previous 24 hours

 ConditionsComfort  
Time TempWeatherWind HumidityBarometerVisibility
1:50 PM
Wed, Jul 1
73 °FMild.9 mph53%30.24 "HgN/A
1:20 PM73 °FMild.10 mph53%30.24 "HgN/A
12:50 PM73 °FMild.9 mph50%30.24 "HgN/A
12:20 PM72 °FMild.10 mph57%30.24 "HgN/A
11:50 AM72 °FMild.10 mph57%30.24 "HgN/A
11:20 AM72 °FMild.8 mph57%30.24 "HgN/A
10:50 AM70 °FMild.7 mph64%30.24 "HgN/A
10:20 AM70 °FMild.8 mph64%30.24 "HgN/A
9:50 AM68 °FPassing clouds.7 mph64%30.24 "HgN/A
9:20 AM66 °FMild.7 mph68%30.24 "HgN/A
8:50 AM66 °FMild.7 mph68%30.24 "HgN/A
8:20 AM64 °FMild.7 mph68%30.24 "HgN/A
7:50 AM63 °FMild.7 mph73%30.24 "HgN/A
7:20 AM61 °FCool.6 mph77%30.24 "HgN/A
6:50 AM57 °FCool.6 mph82%30.24 "HgN/A
6:20 AM55 °FCool.6 mph88%30.24 "HgN/A
5:50 AM54 °FCool.5 mph88%30.24 "HgN/A
5:20 AM52 °FCool.5 mph88%30.24 "HgN/A
4:50 AM52 °FCool.5 mph88%30.24 "HgN/A
4:20 AM52 °FCool.5 mph94%30.24 "HgN/A
3:50 AM52 °FCool.5 mph94%30.24 "HgN/A
3:20 AM54 °FCool.5 mph94%30.24 "HgN/A
2:50 AM52 °FCool.6 mph94%30.24 "HgN/A
2:20 AM52 °FCool.5 mph94%30.24 "HgN/A
1:50 AM52 °FCool.2 mph94%30.24 "HgN/A
1:20 AM54 °FCool.1 mph94%30.24 "HgN/A
12:50 AM54 °FCool.2 mph94%30.24 "HgN/A
12:20 AM54 °FCool.2 mph88%30.24 "HgN/A
11:50 PM
Tue, Jun 30
54 °FCool.2 mph94%30.24 "HgN/A
11:20 PM55 °FCool.2 mph88%30.24 "HgN/A
10:50 PM57 °FCool.3 mph82%30.24 "HgN/A
10:20 PM57 °FCool.3 mph82%30.21 "HgN/A
9:50 PM59 °FCool.3 mph77%30.21 "HgN/A
9:20 PM63 °FMild.3 mph68%30.21 "HgN/A
8:50 PM63 °FMild.5 mph68%30.21 "HgN/A
8:20 PM64 °FMild.7 mph64%30.21 "HgN/A
7:50 PM64 °FMild.8 mph60%30.21 "HgN/A
6:50 PM66 °FMild.8 mph60%30.21 "HgN/A
6:20 PM66 °FMild.7 mph56%30.21 "HgN/A
5:50 PM66 °FMild.7 mph56%30.21 "HgN/A
4:50 PM66 °FMild.9 mph56%30.21 "HgN/A
4:20 PM66 °FMild.9 mph60%30.21 "HgN/A
3:50 PM66 °FMild.10 mph56%30.21 "HgN/A
Weather by CustomWeather, © 2015

See weather overviewHow to use our weather pages